| time (UTC) | temp F | wind direction | speed knots | gust knots | rain 1hr in | rain 24hr in | rain mn in | humidity % | barometer mb |
| 20260507013212 | 43 | 211 | 9.6 | 0.0 | 0.00 | 0.00 | 0.00 | 94 | 1010.7 |
| 20260507010211 | 42 | 187 | 3.5 | 0.0 | 0.00 | 0.00 | 0.00 | 93 | 1010.6 |
| 20260507003209 | 42 | 217 | 4.3 | 0.0 | 0.00 | 0.00 | 0.00 | 93 | 1010.3 |
| 20260507000209 | 43 | 193 | 5.2 | 0.0 | 0.00 | 0.00 | 0.00 | 93 | 1010.4 |
| 20260506233209 | 42 | 182 | 6.1 | 0.0 | 0.00 | 0.00 | 0.00 | 92 | 1010.4 |
| 20260506230209 | 43 | 221 | 7.0 | 0.0 | 0.00 | 0.00 | 0.00 | 92 | 1010.1 |
| 20260506223209 | 45 | 211 | 8.7 | 0.0 | 0.00 | 0.00 | 0.00 | 91 | 1010.1 |
| 20260506213209 | 45 | 173 | 12.2 | 0.0 | 0.00 | 0.00 | 0.01 | 90 | 1009.8 |
| 20260506210210 | 45 | 216 | 5.2 | 0.0 | 0.00 | 0.00 | 0.01 | 91 | 1009.7 |
| 20260506203210 | 46 | 211 | 9.6 | 0.0 | 0.00 | 0.00 | 0.01 | 90 | 1009.6 |
| 20260506200210 | 46 | 186 | 12.2 | 0.0 | 0.00 | 0.00 | 0.01 | 91 | 1009.3 |
| 20260506193215 | 47 | 204 | 9.6 | 0.0 | 0.00 | 0.00 | 0.01 | 89 | 1009.2 |
| 20260506190211 | 47 | 213 | 10.4 | 0.0 | 0.00 | 0.00 | 0.01 | 90 | 1008.7 |
| 20260506183209 | 46 | 225 | 13.9 | 0.0 | 0.00 | 0.00 | 0.01 | 89 | 1008.2 |
| 20260506180216 | 48 | 188 | 10.4 | 0.0 | 0.00 | 0.00 | 0.01 | 89 | 1007.8 |
| 20260506173210 | 48 | 257 | 17.4 | 0.0 | 0.00 | 0.00 | 0.01 | 88 | 1008.0 |
| 20260506170215 | 48 | 209 | 15.6 | 0.0 | 0.00 | 0.00 | 0.01 | 88 | 1007.4 |
| 20260506163210 | 48 | 210 | 15.6 | 0.0 | 0.00 | 0.00 | 0.01 | 87 | 1007.2 |
| 20260506160210 | 48 | 214 | 19.1 | 0.0 | 0.00 | 0.00 | 0.01 | 87 | 1007.1 |
| 20260506153210 | 47 | 231 | 27.8 | 0.0 | 0.00 | 0.00 | 0.01 | 89 | 1006.5 |
| 20260506150210 | 49 | 171 | 26.1 | 0.0 | 0.00 | 0.00 | 0.01 | 90 | 1005.6 |
| 20260506143210 | 57 | 209 | 8.7 | 0.0 | 0.00 | 0.00 | 0.00 | 78 | 1004.6 |
| 20260506140210 | 60 | 144 | 7.8 | 0.0 | 0.00 | 0.00 | 0.00 | 72 | 1004.3 |
| 20260506133211 | 56 | 42 | 5.2 | 0.0 | 0.00 | 0.00 | 0.00 | 82 | 1004.1 |
| 20260506130211 | 57 | 139 | 8.7 | 0.0 | 0.00 | 0.00 | 0.00 | 73 | 1005.1 |
| 20260506123210 | 59 | 98 | 6.1 | 0.0 | 0.00 | 0.00 | 0.00 | 65 | 1004.7 |
| 20260506120210 | 59 | 42 | 6.1 | 0.0 | 0.00 | 0.00 | 0.00 | 69 | 1004.4 |
| 20260506113217 | 58 | 65 | 8.7 | 0.0 | 0.00 | 0.00 | 0.00 | 70 | 1004.3 |
| 20260506110210 | 59 | 96 | 7.8 | 0.0 | 0.00 | 0.00 | 0.00 | 68 | 1004.7 |
| 20260506100213 | 57 | 67 | 7.0 | 0.0 | 0.00 | 0.00 | 0.00 | 73 | 1005.1 |
| 20260506093211 | 57 | 135 | 6.1 | 0.0 | 0.00 | 0.00 | 0.00 | 73 | 1005.5 |
| 20260506090211 | 56 | 5 | 0.9 | 0.0 | 0.00 | 0.00 | 0.00 | 71 | 1005.5 |
| 20260506083211 | 56 | 5 | 3.5 | 0.0 | 0.00 | 0.00 | 0.00 | 77 | 1005.1 |
| 20260506080212 | 54 | 248 | 1.7 | 0.0 | 0.00 | 0.00 | 0.00 | 80 | 1005.4 |
| 20260506073211 | 52 | 249 | 3.5 | 0.0 | 0.00 | 0.00 | 0.00 | 86 | 1005.2 |
| 20260506070212 | 52 | 238 | 2.6 | 0.0 | 0.00 | 0.00 | 0.00 | 86 | 1005.7 |
| 20260506060210 | 50 | 196 | 0.9 | 0.0 | 0.00 | 0.00 | 0.00 | 92 | 1005.5 |
| 20260506050211 | 45 | 169 | 1.7 | 0.0 | 0.00 | 0.00 | 0.00 | 93 | 1005.8 |
| 20260506043211 | 44 | 185 | 1.7 | 0.0 | 0.00 | 0.00 | 0.00 | 93 | 1006.1 |
| 20260506040211 | 45 | 225 | 3.5 | 0.0 | 0.00 | 0.00 | 0.00 | 93 | 1006.4 |
| 20260506033211 | 43 | 192 | 2.6 | 0.0 | 0.00 | 0.00 | 0.00 | 92 | 1006.6 |
| 20260506030212 | 45 | 211 | 4.3 | 0.0 | 0.00 | 0.00 | 0.00 | 92 | 1007.0 |
| 20260506023211 | 45 | 203 | 4.3 | 0.0 | 0.00 | 0.00 | 0.00 | 92 | 1007.1 |
| 20260506020212 | 46 | 236 | 2.6 | 0.0 | 0.00 | 0.00 | 0.00 | 91 | 1007.3 |